Theta_e
344 345 347 348 360 356 362 360 353 352 350 347 345 346 346 347 349 353 343 345 344 343 343 336 331 333 333 332 332 338 341 338 339 338 338 336 340 340 340 336 329 336 338 339 331 324 327 329 331
346 347 349 351 360 362 361 355 354 350 347 346 348 348 348 347 343 343 343 344 343 342 343 332 330 338 334 338 337 338 337 339 342 341 339 340 340 341 341 333 333 337 339 330 338 332 335 333 333
346 350 351 355 358 361 360 354 351 347 347 348 350 348 347 346 343 342 342 342 341 340 341 331 332 337 333 334 341 340 340 341 341 341 342 341 339 341 341 329 331 333 331 331 334 339 330 332 334
349 349 349 359 358 354 354 353 348 348 350 350 349 347 343 343 342 341 341 341 340 333 336 330 332 332 333 340 341 340 335 336 340 339 342 343 342 341 338 336 334 335 335 331 336 337 339 340 339
349 350 355 358 356 352 351 350 349 350 350 349 347 345 344 343 342 341 341 343 342 340 336 332 332 332 336 342 333 339 336 339 339 340 342 341 340 338 335 338 340 340 340 333 339 339 339 340 339
352 347 352 355 353 351 351 351 350 352 350 346 346 345 344 342 342 342 342 344 342 335 339 339 332 332 334 333 332 334 342 341 337 334 336 338 339 339 338 339 338 337 338 338 334 339 340 341 341
351 347 351 352 353 351 351 353 351 351 349 348 345 345 344 343 344 344 344 343 342 339 333 337 336 333 340 343 333 334 342 341 340 341 338 338 339 339 340 337 337 337 336 336 337 335 338 341 340
352 347 354 351 352 353 352 352 352 351 350 346 344 346 346 344 344 344 343 343 342 340 329 331 332 336 342 341 334 334 340 342 340 340 340 343 338 340 341 339 338 338 337 337 338 335 337 339 339
351 355 357 354 351 352 350 352 354 349 345 346 344 344 344 344 345 344 344 344 344 341 331 330 331 331 340 343 333 335 336 336 336 338 340 339 337 337 338 339 339 339 339 339 337 337 339 338 339
352 355 352 349 347 347 349 351 353 349 347 347 345 344 345 345 346 345 344 344 344 340 331 330 332 330 332 334 333 335 336 338 335 336 338 340 339 338 338 339 340 339 340 340 340 340 341 340 343
350 353 350 348 345 348 351 350 352 350 351 348 346 345 345 346 345 345 345 345 343 332 329 329 330 330 331 333 333 336 336 337 337 336 337 338 338 339 339 340 341 341 341 341 342 340 341 340 340
350 348 351 351 350 347 348 352 352 351 351 349 347 345 345 346 344 344 344 345 343 330 327 329 330 330 331 333 334 336 336 341 340 341 341 341 340 338 339 341 343 343 342 342 342 340 341 342 341
347 345 345 347 347 345 345 350 353 352 351 348 346 345 345 345 343 343 343 344 341 330 327 329 329 330 332 333 335 335 337 339 343 341 344 344 344 342 342 344 344 343 342 342 342 342 341 342 340
334 336 342 341 341 343 343 344 351 352 348 347 346 345 345 345 343 343 343 343 340 328 327 327 328 329 332 333 334 336 337 336 340 340 340 340 341 342 344 342 344 343 341 341 341 340 343 341 341
330 333 331 330 332 340 342 348 351 350 348 347 346 345 346 345 343 343 343 343 333 327 327 326 328 329 330 332 335 337 337 341 344 344 342 343 344 343 343 344 344 344 343 341 342 343 341 340 339
323 324 325 329 331 338 343 349 351 349 348 347 346 345 346 345 344 344 344 343 333 329 327 327 328 328 329 331 335 340 337 338 342 344 345 345 346 345 344 345 344 343 342 341 340 341 342 341 339
324 322 323 326 333 341 344 346 350 348 348 348 346 345 345 346 346 345 345 344 336 330 329 328 327 327 328 330 334 340 342 344 345 344 345 345 345 345 345 345 345 343 342 341 342 340 341 341 338
323 323 327 325 333 340 345 345 351 348 348 348 347 345 345 345 346 346 345 346 343 333 332 329 328 328 327 328 335 342 345 345 345 345 345 344 345 343 345 346 345 346 343 342 340 340 341 339 339
323 326 324 330 330 339 343 344 350 348 348 347 347 346 345 345 345 345 346 347 346 336 334 331 329 328 328 331 334 340 343 344 345 344 345 344 343 344 341 343 346 346 343 342 340 341 341 339 338
320 324 326 328 331 340 342 344 344 350 349 348 346 346 345 345 346 346 346 346 346 342 336 334 331 329 328 336 338 341 342 343 344 344 345 344 343 344 344 345 343 346 344 343 342 343 342 339 339
320 320 323 327 327 335 340 342 347 351 349 347 347 346 344 345 346 346 346 346 347 345 342 338 333 332 330 329 340 341 342 343 344 343 343 343 343 343 344 345 345 344 343 344 343 340 342 339 338
319 320 321 323 326 332 338 344 346 350 353 351 348 346 345 344 345 346 346 346 346 346 343 342 336 336 338 330 332 339 340 340 342 344 344 344 343 342 343 344 346 344 344 344 343 341 340 341 337
319 318 319 321 324 327 330 340 340 346 354 354 351 349 346 345 345 345 346 346 346 347 344 344 342 339 342 333 333 337 342 342 340 341 344 344 344 343 342 342 345 344 345 344 344 345 341 340 338
319 321 320 320 320 322 329 334 339 345 349 352 351 350 349 348 346 346 347 347 347 347 346 344 344 343 343 335 332 338 340 342 342 342 342 343 344 344 343 342 342 343 343 345 345 344 344 341 341
319 320 322 324 323 321 323 329 331 336 344 344 349 350 350 350 349 347 347 347 347 346 347 344 343 343 342 341 339 341 341 342 342 343 343 343 342 342 343 340 341 341 342 345 345 346 344 344 343
323 323 323 325 325 323 322 328 331 331 330 341 344 347 350 350 350 349 348 347 347 346 344 344 343 344 345 344 343 343 344 345 345 343 343 343 343 339 337 339 338 341 341 344 347 345 346 345 347
324 324 323 324 325 327 324 325 327 330 332 332 335 343 347 349 350 350 349 349 347 346 345 344 344 343 346 346 343 343 342 344 345 343 342 343 344 342 334 333 335 338 340 346 348 346 344 344 343
322 324 325 325 326 327 327 327 326 329 332 333 334 336 341 346 348 350 351 349 348 347 343 343 344 343 344 345 344 343 341 342 343 342 342 343 343 343 340 332 335 339 341 344 344 346 348 347 345
322 323 326 327 327 327 327 328 329 329 332 333 334 333 338 341 344 346 349 350 349 348 347 344 345 345 344 343 342 342 342 343 343 344 343 343 343 344 340 338 334 339 342 343 344 344 346 348 347
316 321 324 328 330 331 329 329 328 330 330 332 332 333 335 338 341 343 345 349 350 349 348 348 347 346 346 345 344 343 343 344 344 345 344 344 343 344 343 338 333 337 340 343 344 345 346 347 347
Wind_Speed
10 9 9 7 3 2 2 3 2 10 8 5 19 7 10 3 1 3 26 27 33 30 27 23 21 18 16 15 16 14 14 13 12 12 11 11 11 11 10 8 10 11 8 7 9 11 10 10 11
9 9 5 3 2 1 3 3 8 5 13 21 11 15 5 4 5 18 31 33 33 29 22 22 20 17 16 15 16 14 13 14 13 12 12 12 12 12 11 10 12 9 9 8 10 12 13 12 12
10 6 2 1 1 2 2 4 8 16 21 15 6 8 4 5 8 38 27 36 33 29 22 23 20 17 16 17 14 14 13 14 13 13 12 12 13 12 13 11 11 11 9 9 11 12 13 13 14
8 3 2 2 3 1 2 2 19 21 13 4 12 7 5 5 23 25 38 33 31 28 24 22 19 17 17 15 14 14 14 14 14 13 13 12 13 13 13 12 11 10 10 10 11 11 12 14 13
10 2 2 3 2 1 3 13 16 16 11 8 3 5 5 13 22 33 36 31 29 26 23 21 19 17 16 15 15 15 16 13 14 13 12 13 13 13 12 11 11 9 9 10 11 12 13 14 15
4 1 2 2 1 2 3 6 19 12 9 9 8 10 5 16 25 35 33 30 27 28 23 20 19 17 16 15 16 16 15 14 14 14 13 13 14 14 13 12 11 10 8 8 10 13 12 11 12
2 2 1 3 2 3 4 5 15 11 11 7 15 7 9 19 30 30 30 29 27 26 25 21 19 18 15 15 15 16 14 14 14 14 14 15 15 14 13 12 11 9 8 8 10 11 11 12 11
2 2 2 3 1 1 5 5 9 7 5 14 11 7 10 27 32 29 28 28 27 26 26 23 21 20 17 14 14 15 15 14 13 13 15 15 14 13 12 11 11 10 12 12 12 12 11 9 10
4 2 3 2 1 5 8 5 4 6 17 7 11 8 21 33 31 30 29 28 27 25 26 23 21 19 18 15 15 15 14 14 13 14 14 13 13 12 11 10 9 12 13 13 14 13 12 11 10
6 3 3 1 1 2 10 9 11 8 15 7 8 15 33 36 33 33 33 34 28 28 27 24 21 20 18 16 16 15 15 13 14 14 14 13 11 10 9 9 9 10 11 12 13 13 11 11 10
6 4 5 3 4 3 7 9 8 13 11 13 24 28 36 37 34 32 32 32 30 31 29 26 23 20 18 17 16 15 15 15 14 13 13 12 10 8 7 6 7 9 8 11 10 9 10 10 10
5 10 6 2 2 3 3 7 8 15 1 14 24 35 41 37 36 34 33 30 29 32 31 27 24 22 19 17 16 15 17 15 12 11 11 10 9 8 7 7 8 6 8 7 7 5 4 4 6
15 6 7 14 12 7 3 10 5 16 3 16 25 37 40 35 34 32 30 29 30 32 32 29 26 23 20 17 17 17 17 13 13 10 10 10 10 9 8 7 7 4 4 6 6 6 4 5 5
8 21 9 6 7 8 7 5 8 4 13 21 29 37 39 36 36 33 32 31 32 34 33 30 27 24 21 18 18 18 15 14 12 11 11 11 9 8 8 6 4 5 5 5 5 3 3 7 5
15 3 6 11 13 6 5 7 11 14 19 26 29 33 35 34 34 34 33 32 35 35 33 31 28 25 22 20 19 18 17 15 15 11 11 10 8 8 8 6 6 6 5 3 4 5 7 7 5
7 6 8 3 15 7 9 6 6 19 24 26 28 31 35 35 35 31 30 30 34 34 34 31 29 27 24 21 20 18 18 17 13 12 10 8 8 8 6 6 6 4 4 6 5 3 6 6 4
5 8 17 7 13 6 13 4 9 19 21 25 27 31 34 34 32 30 30 29 33 35 34 32 30 28 25 23 22 20 18 16 13 12 10 8 6 6 4 6 7 4 4 3 5 3 5 6 6
11 13 7 16 10 14 14 12 10 17 19 25 27 29 32 35 35 32 30 29 30 35 34 33 30 28 26 24 24 23 20 17 15 13 11 9 7 6 5 5 5 5 3 3 6 4 3 6 6
6 9 11 6 9 14 17 16 12 18 18 21 25 28 32 34 32 31 31 30 30 35 36 35 33 30 28 28 28 26 24 19 16 14 12 9 7 5 6 5 3 4 2 3 5 6 3 5 6
15 9 11 9 7 8 14 21 11 18 23 27 30 31 32 31 32 33 32 33 34 36 38 37 35 33 31 31 29 28 25 19 16 14 14 11 9 7 5 3 4 3 2 4 4 3 5 5 7
19 21 12 7 3 11 9 16 13 15 17 20 24 25 27 33 36 36 36 36 34 38 41 40 38 35 34 33 31 29 25 20 18 17 15 12 11 9 7 5 4 4 2 3 2 2 7 6 5
19 17 16 15 7 11 16 13 15 14 19 20 26 29 31 34 34 34 36 37 38 39 41 40 40 37 35 34 35 32 29 26 23 18 15 13 10 9 9 8 5 5 5 4 2 3 6 5 6
16 9 18 18 14 11 12 11 16 12 17 21 26 32 33 34 36 37 39 40 37 35 40 41 40 39 37 38 36 34 31 26 23 21 18 17 15 13 10 9 9 6 6 5 5 4 6 6 6
10 5 11 12 14 17 22 14 16 14 18 18 25 30 34 35 37 37 35 34 36 35 37 41 42 40 39 38 38 35 33 29 25 23 21 21 20 18 16 13 11 10 7 6 8 7 5 9 8
17 14 7 6 9 18 18 17 16 9 14 18 20 32 35 36 36 37 36 37 38 39 39 42 44 43 40 40 40 37 35 32 28 25 22 22 23 25 22 18 16 13 11 9 9 9 8 7 10
22 20 8 13 9 13 17 13 16 23 25 13 19 22 29 33 36 39 42 41 43 46 48 47 48 46 45 45 43 40 38 35 33 31 28 23 22 21 24 23 20 18 14 12 11 11 11 11 10
14 22 23 11 2 9 13 17 14 13 16 26 20 18 25 34 37 40 42 44 46 47 50 46 45 45 46 45 45 43 40 38 35 32 29 27 23 19 18 20 19 18 18 15 13 12 12 13 14
10 12 18 12 17 14 7 18 14 22 19 15 21 25 25 30 34 35 39 45 47 48 50 46 43 43 45 46 46 44 41 38 34 31 31 30 25 20 18 19 20 19 20 18 17 16 15 15 16
8 11 10 14 17 11 15 10 10 17 21 21 17 27 30 32 35 38 39 45 50 47 50 50 47 44 43 44 45 45 44 40 37 33 30 28 27 23 21 21 22 23 22 21 20 19 18 18 16
9 6 13 13 20 18 15 8 3 12 19 23 27 25 29 34 35 36 36 37 40 46 49 51 51 51 47 45 46 45 44 42 40 35 31 27 28 25 23 23 24 24 24 23 23 20 20 19 19
Wind_Direction
156 152 153 170 215 208 270 89 83 117 136 145 143 152 150 70 81 92 147 155 155 149 146 150 143 141 133 133 130 129 126 131 128 129 132 136 131 128 126 125 116 106 99 98 88 106 116 117 113
152 153 169 270 253 244 61 73 122 127 134 131 108 119 96 92 96 141 150 154 155 149 147 147 145 140 139 133 129 128 123 126 126 127 127 130 129 125 117 113 113 112 104 99 101 98 105 111 116
154 149 291 263 274 278 90 77 106 122 136 140 109 100 96 118 140 147 157 154 156 151 150 147 146 145 136 132 127 126 125 127 124 120 121 121 126 120 117 116 110 112 112 100 107 102 108 114 115
152 174 269 272 220 168 35 70 128 138 120 94 128 78 79 124 146 156 155 155 156 152 149 149 149 144 137 134 134 134 132 122 118 116 116 118 120 120 116 118 116 114 109 106 107 103 110 110 111
163 168 222 247 238 157 110 132 146 146 131 129 131 111 82 128 152 157 157 156 157 154 150 152 152 146 143 143 137 131 128 125 123 121 117 117 117 119 121 115 113 110 113 119 117 108 107 98 91
146 215 228 224 200 144 107 144 151 138 135 139 107 119 124 161 158 156 158 158 160 157 153 154 154 151 145 140 137 137 130 123 120 118 119 120 121 127 124 118 110 107 113 120 123 116 108 109 108
182 199 251 282 262 179 171 162 167 143 143 162 143 121 138 160 158 157 158 160 161 162 160 157 156 152 145 141 138 140 132 129 126 121 121 122 123 121 120 119 107 96 93 117 122 122 117 116 102
203 240 247 239 70 140 154 131 143 152 141 140 161 160 168 165 159 157 159 162 165 166 167 162 159 158 156 146 145 147 142 138 133 131 130 128 125 122 121 112 101 95 92 104 111 124 119 106 109
188 245 251 210 157 138 167 151 133 135 141 150 175 160 161 158 159 158 159 164 169 169 171 168 165 162 156 156 153 151 145 139 138 135 132 129 124 120 119 110 101 91 90 97 104 111 108 105 118
208 235 226 284 290 129 181 186 143 143 149 130 142 135 151 159 163 164 166 169 173 173 175 173 169 166 164 161 158 156 148 144 145 143 138 135 132 127 119 116 111 102 102 100 97 99 99 98 103
197 232 237 32 89 99 145 183 168 155 188 187 165 157 160 164 168 170 171 172 176 176 177 176 172 172 168 165 161 158 149 146 145 144 135 133 136 137 137 125 127 121 116 110 107 104 99 94 114
232 243 241 273 134 33 189 168 187 188 251 191 174 166 162 170 173 174 175 174 177 180 179 177 176 175 172 166 164 157 152 146 145 149 139 134 134 139 148 131 116 117 126 118 121 116 125 112 110
224 248 264 254 279 298 221 196 198 202 114 156 162 165 169 172 177 178 178 179 181 183 180 179 178 179 174 170 165 162 159 154 154 152 152 145 133 136 142 143 130 137 153 141 130 118 106 143 131
224 226 243 291 274 269 267 254 198 164 148 151 164 171 174 177 179 180 182 183 185 183 182 181 180 181 176 172 166 164 166 163 161 154 147 142 142 144 164 156 152 134 125 156 142 131 134 123 140
227 289 234 247 253 232 205 219 221 161 157 160 169 175 179 182 185 190 186 186 187 185 183 184 182 182 179 175 170 170 169 157 154 149 156 143 130 125 129 152 157 162 147 122 161 157 134 127 117
209 223 247 189 212 212 190 253 176 164 164 167 172 179 183 189 192 193 192 191 192 188 187 186 185 185 183 179 175 174 175 169 165 162 156 145 140 137 140 155 157 150 132 129 127 120 130 163 151
179 209 218 244 200 187 193 249 168 174 176 172 178 183 188 191 195 198 197 195 196 193 192 190 189 188 185 183 180 180 178 177 174 171 169 163 166 174 159 170 183 170 157 140 131 125 141 163 163
196 216 211 217 193 214 208 230 159 179 182 181 182 186 192 195 197 196 197 198 200 200 198 196 194 191 189 187 184 183 188 193 195 194 185 181 173 180 176 165 181 208 172 166 130 95 100 147 156
256 235 241 219 216 202 230 225 202 182 191 188 189 191 196 199 198 199 199 201 201 206 204 202 200 195 194 190 192 193 197 200 203 199 191 185 176 176 182 189 184 228 200 175 165 139 127 174 175
230 246 233 248 234 218 218 243 211 191 201 196 194 195 199 197 198 200 201 202 205 207 209 207 206 202 200 197 198 200 199 201 203 200 203 206 199 197 195 188 208 220 204 170 185 209 185 185 194
224 234 229 244 332 226 246 241 214 208 213 206 207 206 201 199 200 200 202 204 205 210 212 211 210 208 206 206 205 208 206 209 209 206 211 211 213 211 213 216 233 242 258 215 178 155 172 187 203
230 226 243 251 274 226 213 240 213 194 205 207 204 202 203 203 206 205 205 207 207 210 214 214 212 213 211 210 212 214 213 213 212 208 211 219 222 226 228 225 226 242 248 230 210 174 179 193 207
233 224 226 237 249 271 243 237 234 196 207 209 209 208 206 205 205 206 208 209 208 208 213 215 214 216 216 214 214 217 218 219 221 222 221 231 241 242 241 234 232 246 245 233 241 232 215 210 210
210 161 215 234 239 246 233 231 228 204 214 209 214 213 210 207 206 209 210 209 210 209 213 216 216 217 218 216 214 217 220 221 222 223 227 235 243 247 249 244 240 240 244 243 232 236 234 223 222
205 209 208 211 211 238 223 237 234 222 220 216 207 213 211 210 207 207 206 206 208 208 210 216 218 216 217 218 217 219 225 229 230 233 234 236 243 247 247 248 246 245 246 240 231 235 244 237 233
208 208 204 210 218 234 217 235 221 228 240 237 234 220 211 209 211 209 208 207 208 210 217 220 221 220 219 221 223 223 225 230 234 236 237 238 244 252 249 251 254 243 240 235 233 240 245 244 244
203 213 218 259 242 254 216 235 264 228 235 229 225 216 206 209 209 212 210 209 209 212 214 220 220 222 221 221 223 225 226 230 234 234 234 239 243 249 246 243 244 236 231 231 236 241 246 249 249
239 209 209 223 241 234 209 226 232 209 224 222 225 218 215 213 214 214 212 209 211 214 216 218 221 222 222 222 224 226 226 226 230 234 236 238 241 244 244 234 233 231 228 233 238 244 248 251 253
195 219 216 232 231 235 239 230 238 229 213 217 218 220 221 218 217 214 212 210 210 213 213 219 219 222 225 223 222 225 226 226 227 231 234 237 239 240 243 237 231 230 230 233 238 244 249 253 253
301 280 263 227 224 232 257 247 199 228 220 217 224 225 223 221 220 218 211 207 207 206 209 217 222 221 224 226 224 222 225 228 230 228 232 234 237 236 240 239 233 229 230 232 237 242 247 249 250